EWG16TM LGIR-EDDL

Flight info

Callsign EWG16TM
Flight time N/A
Altitude 36000
Route EPALO M749 DIRMI UL613 YNN UL604 DIMIS DCT RETRA/N0446F380 DCT PETOV DCT LAMSI L604 RODIS DCT TESDU DCT AMETU T852 TINSA T854 DOMUX DOMUX1A
Aircraft A320/M-SDE3FGHIRWY/LB1

Departure

Time 2026-05-01 14:40
Airport Heraklion International Nikos Kazantzakis Airport (LGIR)

Arrival

Time N/A
Airport Düsseldorf Airport (EDDL)
Time Latitude Longitude Altitude Speed Heading
2026-05-01 13:48 35.33867 25.17293 91 ft 0 kts 319°
2026-05-01 14:01 35.33867 25.17294 91 ft 0 kts 319°
2026-05-01 14:12 35.33866 25.17294 91 ft 0 kts 319°
2026-05-01 14:28 35.33866 25.17295 91 ft 0 kts 319°
2026-05-01 14:31 35.33841 25.17327 93 ft 4 kts 304°
2026-05-01 14:31 35.33826 25.17355 90 ft 4 kts 309°
2026-05-01 14:31 35.33811 25.17369 91 ft 1 kts
2026-05-01 14:31 35.33810 25.17369 91 ft 1 kts
2026-05-01 14:35 35.33848 25.17373 91 ft 7 kts
2026-05-01 14:35 35.33894 25.17378 92 ft 5 kts
2026-05-01 14:35 35.33916 25.17412 91 ft 8 kts 78°
2026-05-01 14:35 35.33912 25.17497 92 ft 10 kts 95°
2026-05-01 14:36 35.33905 25.17590 91 ft 12 kts 95°
2026-05-01 14:36 35.33899 25.17683 92 ft 10 kts 95°
2026-05-01 14:36 35.33894 25.17760 92 ft 11 kts 95°
2026-05-01 14:36 35.33886 25.17877 95 ft 13 kts 95°
2026-05-01 14:37 35.33878 25.17984 92 ft 12 kts 95°
2026-05-01 14:37 35.33872 25.18079 92 ft 10 kts 94°
2026-05-01 14:37 35.33867 25.18153 93 ft 8 kts 95°
2026-05-01 14:37 35.33859 25.18270 93 ft 23 kts 94°
2026-05-01 14:38 35.33845 25.18475 90 ft 25 kts 95°
2026-05-01 14:38 35.33830 25.18695 90 ft 26 kts 95°
2026-05-01 14:38 35.33819 25.18857 90 ft 13 kts 95°
2026-05-01 14:38 35.33830 25.18944 91 ft 10 kts 58°
2026-05-01 14:39 35.33862 25.19006 88 ft 7 kts 58°
2026-05-01 14:39 35.33877 25.19055 90 ft 5 kts 69°
2026-05-01 14:39 35.33896 25.19061 89 ft 2 kts 339°
2026-05-01 14:39 35.33906 25.19037 91 ft 10 kts 285°
2026-05-01 14:40 35.33924 25.18763 90 ft 67 kts 275°
2026-05-01 14:40 35.33981 25.17927 96 ft 128 kts 274°
2026-05-01 14:40 35.34069 25.16646 198 ft 166 kts 277°
2026-05-01 14:40 35.34176 25.15231 914 ft 165 kts 284°
2026-05-01 14:41 35.34750 25.14024 1339 ft 177 kts 327°
2026-05-01 14:41 35.35972 25.13445 1548 ft 201 kts 342°
2026-05-01 14:41 35.37415 25.12986 1885 ft 226 kts 344°
2026-05-01 14:41 35.39004 25.12505 2428 ft 244 kts 344°
2026-05-01 14:42 35.40667 25.11985 3286 ft 248 kts 342°
2026-05-01 14:42 35.42345 25.11419 4159 ft 253 kts 340°
2026-05-01 14:42 35.44069 25.10816 4937 ft 262 kts 339°
2026-05-01 14:42 35.45846 25.10200 5717 ft 269 kts 340°
2026-05-01 14:43 35.47670 25.09562 6568 ft 272 kts 339°
2026-05-01 14:43 35.49492 25.08925 7456 ft 273 kts 338°
2026-05-01 14:43 35.51327 25.08263 8350 ft 276 kts 337°
2026-05-01 14:43 35.53182 25.07572 9124 ft 281 kts 336°
2026-05-01 14:44 35.55062 25.06867 9985 ft 283 kts 336°
2026-05-01 14:44 35.59045 25.05439 10805 ft 319 kts 339°
2026-05-01 14:44 35.61208 25.04691 11406 ft 327 kts 339°
2026-05-01 14:45 35.63412 25.03927 12137 ft 331 kts 339°
2026-05-01 14:45 35.67883 25.02350 13605 ft 337 kts 338°
2026-05-01 14:45 35.70145 25.01536 14282 ft 340 kts 338°
2026-05-01 14:46 35.72388 25.00691 14912 ft 342 kts 336°
2026-05-01 14:46 35.76870 24.98649 16177 ft 346 kts 332°
2026-05-01 14:46 35.79113 24.97552 16812 ft 348 kts 332°
2026-05-01 14:47 35.81376 24.96442 17442 ft 351 kts 332°
2026-05-01 14:47 35.83659 24.95336 18067 ft 354 kts 332°
2026-05-01 14:47 35.85966 24.94232 18637 ft 357 kts 332°
2026-05-01 14:48 35.90637 24.92032 19732 ft 361 kts 332°
2026-05-01 14:48 35.92993 24.90925 20284 ft 363 kts 332°
2026-05-01 14:48 35.97735 24.88691 21378 ft 366 kts 331°
2026-05-01 14:49 36.02524 24.86425 22437 ft 370 kts 330°
2026-05-01 14:49 36.07036 24.83566 23445 ft 359 kts 315°
2026-05-01 14:50 36.09640 24.80981 24033 ft 360 kts 314°
2026-05-01 14:50 36.14862 24.75795 25128 ft 363 kts 314°
2026-05-01 14:51 36.16838 24.73836 25531 ft 365 kts 314°
2026-05-01 14:51 36.20815 24.69886 26317 ft 368 kts 314°
2026-05-01 14:52 36.24820 24.65906 27110 ft 370 kts 313°
2026-05-01 14:52 36.26831 24.63909 27529 ft 371 kts 313°
2026-05-01 14:52 36.30870 24.59891 28296 ft 374 kts 313°
2026-05-01 14:53 36.32898 24.57870 28665 ft 375 kts 313°
2026-05-01 14:53 36.34935 24.55833 29028 ft 376 kts 313°
2026-05-01 14:53 36.36981 24.53783 29388 ft 378 kts 313°
2026-05-01 14:53 36.39028 24.51730 29731 ft 379 kts 313°
2026-05-01 14:54 36.41087 24.49667 30084 ft 381 kts 313°
2026-05-01 14:54 36.43148 24.47602 30371 ft 382 kts 313°
2026-05-01 14:54 36.45222 24.45523 30637 ft 384 kts 313°
2026-05-01 14:54 36.47305 24.43434 30893 ft 385 kts 313°
2026-05-01 14:55 36.49392 24.41340 31138 ft 387 kts 313°
2026-05-01 14:55 36.51497 24.39230 31392 ft 388 kts 313°
2026-05-01 14:55 36.53593 24.37130 31800 ft 387 kts 313°
2026-05-01 14:55 36.55683 24.35035 32204 ft 385 kts 312°
2026-05-01 14:56 36.57762 24.32946 32570 ft 383 kts 312°
2026-05-01 14:56 36.59832 24.30860 32914 ft 383 kts 312°
2026-05-01 14:56 36.61895 24.28776 33240 ft 382 kts 312°
2026-05-01 14:56 36.63959 24.26693 33576 ft 382 kts 312°
2026-05-01 14:57 36.65997 24.24639 33908 ft 381 kts 311°
2026-05-01 14:57 36.70109 24.20488 34493 ft 380 kts 311°
2026-05-01 14:57 36.72163 24.18410 34761 ft 380 kts 311°
2026-05-01 14:58 36.74210 24.16335 35035 ft 379 kts 311°
2026-05-01 14:58 36.76258 24.14257 35292 ft 379 kts 311°
2026-05-01 14:58 36.78306 24.12179 35537 ft 378 kts 311°
2026-05-01 14:58 36.80349 24.10105 35776 ft 378 kts 311°
2026-05-01 14:59 36.82390 24.08034 36046 ft 378 kts 311°
2026-05-01 14:59 36.84421 24.05975 36095 ft 375 kts 311°
2026-05-01 14:59 36.88453 24.01886 36099 ft 372 kts 311°
2026-05-01 15:00 36.93794 23.96436 36104 ft 371 kts 311°
2026-05-01 15:01 36.97794 23.92350 36106 ft 371 kts 311°
2026-05-01 15:01 37.01801 23.88266 36107 ft 372 kts 311°
2026-05-01 15:02 37.05817 23.84171 36116 ft 372 kts 311°
2026-05-01 15:02 37.09829 23.80076 36117 ft 372 kts 311°
2026-05-01 15:03 37.13838 23.75965 36136 ft 370 kts 311°
2026-05-01 15:03 37.17822 23.71877 36120 ft 371 kts 311°
2026-05-01 15:04 37.21824 23.67767 36124 ft 372 kts 311°
2026-05-01 15:04 37.25825 23.63644 36126 ft 372 kts 311°
2026-05-01 15:05 37.29831 23.59506 36137 ft 373 kts 311°
2026-05-01 15:05 37.33839 23.55367 36148 ft 373 kts 311°
2026-05-01 15:06 37.37848 23.51228 36148 ft 373 kts 311°
2026-05-01 15:06 37.41862 23.47079 36170 ft 374 kts 311°
2026-05-01 15:07 37.45884 23.42907 36161 ft 375 kts 311°
2026-05-01 15:07 37.49887 23.38749 36146 ft 376 kts 311°
2026-05-01 15:08 37.53951 23.34530 36147 ft 377 kts 311°
2026-05-01 15:08 37.57969 23.30353 36152 ft 377 kts 311°
2026-05-01 15:09 37.62014 23.26142 36155 ft 377 kts 311°
2026-05-01 15:09 37.66054 23.21918 36156 ft 377 kts 311°
2026-05-01 15:10 37.70096 23.17685 36184 ft 378 kts 311°
2026-05-01 15:10 37.76170 23.11329 36172 ft 377 kts 311°
2026-05-01 15:11 37.82231 23.04972 36179 ft 377 kts 311°
2026-05-01 15:12 37.86270 23.00725 36179 ft 377 kts 311°
2026-05-01 15:12 37.92320 22.94354 36175 ft 377 kts 311°
2026-05-01 15:14 38.01951 22.83284 36188 ft 373 kts 308°
2026-05-01 15:14 38.07673 22.76572 36178 ft 373 kts 309°
2026-05-01 15:15 38.15337 22.67652 36174 ft 374 kts 309°
2026-05-01 15:16 38.23010 22.58725 36171 ft 374 kts 309°
2026-05-01 15:18 38.32607 22.47528 36191 ft 375 kts 309°
2026-05-01 15:19 38.40289 22.38530 36185 ft 375 kts 309°
2026-05-01 15:19 38.46046 22.31768 36163 ft 374 kts 309°
2026-05-01 15:20 38.51797 22.24988 36178 ft 375 kts 309°
2026-05-01 15:21 38.55626 22.20463 36173 ft 375 kts 309°
2026-05-01 15:21 38.59425 22.15971 36166 ft 374 kts 309°
2026-05-01 15:22 38.65177 22.09175 36183 ft 375 kts 309°
2026-05-01 15:22 38.69006 22.04628 36159 ft 376 kts 309°
2026-05-01 15:23 38.72832 22.00073 36154 ft 376 kts 309°
2026-05-01 15:23 38.76662 21.95505 36153 ft 376 kts 309°
2026-05-01 15:24 38.80497 21.90938 36169 ft 376 kts 310°
2026-05-01 15:24 38.84335 21.86357 36151 ft 378 kts 309°
2026-05-01 15:25 38.88176 21.81758 36142 ft 378 kts 309°
2026-05-01 15:25 38.92033 21.77139 36137 ft 378 kts 310°
2026-05-01 15:26 38.95886 21.72522 36132 ft 379 kts 310°
2026-05-01 15:26 38.99749 21.67876 36129 ft 380 kts 310°
2026-05-01 15:27 39.03606 21.63226 36141 ft 380 kts 310°
2026-05-01 15:28 39.09378 21.56278 36161 ft 380 kts 310°
2026-05-01 15:28 39.13241 21.51604 36126 ft 382 kts 310°
2026-05-01 15:29 39.19048 21.44566 36130 ft 382 kts 310°
2026-05-01 15:30 39.26802 21.35153 36123 ft 383 kts 310°
2026-05-01 15:31 39.38429 21.20980 36139 ft 384 kts 310°
2026-05-01 15:32 39.46228 21.11444 36098 ft 387 kts 310°
2026-05-01 15:34 39.57974 20.96999 36087 ft 389 kts 310°